Powrót do katalogu

FORMOSAT7-5/COSMIC2-5

AktywnyPogodaVLEO
NORAD 44358·PAYLOAD·🇹🇼 Taiwan

Wystrzelony Jun 25, 2019 z Cape Canaveral Space Force Station

Loading…

Następne Przeloty (najbliższe 24 godziny)

TLE

ŚwieżeSource: Space-Track

Epoka: Sep 14, 2026, 09:47 UTC

1 44358U 19036V   26257.40766426  .00002081  00000-0  15156-3 0  9992
2 44358  23.9993  26.7396 0000459 112.8236 247.2313 14.96804388395735

Śledź FORMOSAT7-5/COSMIC2-5 w czasie rzeczywistym z AllMySat

Download on the App Store